CWPO9207 Weather Reports


time (UTC)temp
C
wind
direction
speed
KPH
gust
KPH
rain 1hr
cm
rain 24hr
cm
rain mn
cm
humidity
%
barometer
mb
20260506233130 24 157 0.0 0.0 0.00 0.00 0.00 57 30.7
20260506230129 24 300 0.0 0.0 0.00 0.00 0.00 57 30.7
20260506223129 25 223 0.0 0.0 0.00 0.00 0.00 56 30.7
20260506220129 24 250 0.0 0.0 0.00 0.00 0.00 58 30.7
20260506213129 24 259 0.0 0.0 0.00 0.00 0.00 56 30.7
20260506210129 24 86 0.0 0.0 0.00 0.00 0.00 56 30.7
20260506203129 23 238 0.0 0.0 0.00 0.00 0.00 60 30.7
20260506200129 22 254 0.0 0.0 0.00 0.00 0.00 58 30.8
20260506193128 22 120 0.0 0.0 0.00 0.00 0.00 61 30.8
20260506190128 21 260 0.0 0.0 0.00 0.00 0.00 61 30.8
20260506183128 20 234 0.0 0.0 0.00 0.00 0.00 63 30.8
20260506180128 19 225 0.0 0.0 0.00 0.00 0.00 65 30.8
20260506173128 18 238 0.0 0.0 0.00 0.00 0.00 66 30.8
20260506170127 17 234 0.0 0.0 0.00 0.00 0.00 71 30.8
20260506163128 16 123 0.0 0.0 0.00 0.00 0.00 74 30.8
20260506160127 16 150 0.0 0.0 0.00 0.00 0.00 77 30.8
20260506153127 15 238 0.0 0.0 0.00 0.00 0.00 77 30.8
20260506143127 10 186 0.0 0.0 0.00 0.00 0.00 91 30.8
20260506140127 8 186 0.0 0.0 0.00 0.00 0.00 92 30.8
20260506133127 7 186 0.0 0.0 0.00 0.00 0.00 91 30.8
20260506130127 7 186 0.0 0.0 0.00 0.00 0.00 91 30.8
20260506123127 7 186 0.0 0.0 0.00 0.00 0.00 90 30.8
20260506120126 7 186 0.0 0.0 0.00 0.00 0.00 90 30.8
20260506113126 8 186 0.0 0.0 0.00 0.00 0.00 90 30.8
20260506100125 8 186 0.0 0.0 0.00 0.00 0.00 90 30.8
20260506090125 8 186 0.0 0.0 0.00 0.00 0.00 89 30.8
20260506083125 9 186 0.0 0.0 0.00 0.00 0.00 88 30.8
20260506080125 9 186 0.0 0.0 0.00 0.00 0.00 87 30.8
20260506073125 9 186 0.0 0.0 0.00 0.05 0.00 87 30.8
20260506070124 10 186 0.0 0.0 0.00 0.10 0.00 87 30.8
20260506060124 11 186 0.0 0.0 0.00 0.10 0.10 85 30.8
20260506050124 11 186 0.0 0.0 0.00 0.10 0.10 83 30.7
20260506043123 12 186 0.0 0.0 0.00 0.10 0.10 79 30.7
20260506040124 13 186 0.0 0.0 0.00 0.10 0.10 76 30.7
20260506030123 15 186 0.0 0.0 0.00 0.10 0.10 71 30.7
20260506020123 16 130 0.0 0.0 0.00 0.10 0.10 68 30.7
20260506013123 16 194 0.0 0.0 0.00 0.10 0.10 67 30.7
20260506010123 16 201 0.0 0.0 0.00 0.10 0.10 66 30.7
20260506003123 17 296 0.0 0.0 0.00 0.10 0.10 66 30.7
20260506000123 17 22 0.0 0.0 0.00 0.10 0.10 63 30.7